Location: Unspecified
(0.0000°N, 0.0000°E)
Time: 10:37:23
(UTC+00:00)

Envisat - Pass Details

Date: 31 January 2021
Orbit: 764 x 766 km, 98.1° (Epoch: 27 February)

Event Time Altitude Azimuth Distance (km) Brightness Sun altitude
Rises 04:24:51 0° 41° (NE) 3,215 6.5 -25.8°
Reaches altitude 10° 04:27:50 10° 60° (ENE) 2,292 5.9 -25.1°
Maximum altitude 04:31:14 18° 102° (ESE) 1,790 5.8 -24.3°
Drops below altitude 10° 04:34:38 10° 145° (SE) 2,298 6.2 -23.5°
Sets 04:37:36 0° 163° (SSE) 3,227 6.7 -22.8°
